Theta_e
324 317 313 312 313 309 306 302 298 295 296 294 292 292 295 298 301 299 299 305 310 315 320 322 321 321 316 314 316 315 322 319 316 309 304 316 337 336 337 339 342 344 345 347 347 348 348 351 352 351 351 352 352 352 352 353 354 353 354 354 353 353 353 353 353 352 352 352 352 352 351 351 351 351 351 351 351 350 350 351 350 349 349 348 348 348 347 347 346 345 345 344 344 344 345 345 345
320 313 312 312 309 307 301 301 293 291 291 289 291 293 294 297 298 297 300 303 308 317 325 328 328 329 329 329 328 326 320 327 328 323 329 336 338 337 339 341 343 343 345 346 346 347 347 349 351 351 351 352 352 353 353 353 353 354 354 354 353 353 353 353 352 353 352 352 352 352 352 352 351 351 351 351 350 350 350 350 350 350 349 349 347 347 348 347 346 346 346 344 344 344 345 344 345
317 311 312 310 304 303 305 298 295 291 290 289 291 293 297 296 296 299 304 314 318 325 328 328 329 327 325 325 320 318 313 330 330 331 331 337 331 334 340 343 344 344 344 345 346 346 347 349 352 351 352 352 352 352 354 354 354 354 353 353 353 353 353 353 352 352 351 352 352 351 351 351 351 351 351 351 350 350 350 350 350 350 349 349 348 347 346 346 346 345 345 344 344 344 344 344 343
308 310 307 303 304 300 295 293 292 292 291 289 291 295 296 297 297 303 305 318 321 325 326 324 320 326 325 320 323 329 326 328 331 331 329 333 332 338 341 343 345 344 345 346 346 347 347 350 352 352 351 352 352 353 353 353 354 353 353 353 353 353 353 352 352 352 352 351 351 351 350 350 350 350 350 350 350 350 349 349 349 349 348 347 346 346 346 346 346 345 345 345 344 344 344 344 344
308 309 308 301 298 300 296 296 291 291 290 291 292 296 298 298 299 300 308 319 323 324 321 322 322 327 331 328 329 320 319 330 331 334 332 335 340 340 341 343 343 344 344 346 347 347 348 352 352 352 352 352 353 353 353 353 353 353 353 353 353 352 352 352 352 352 351 351 350 349 349 349 349 349 349 349 349 349 349 348 348 347 345 345 345 345 346 346 346 346 346 346 346 345 346 344 344
307 305 307 306 302 301 296 293 291 291 295 293 293 297 300 301 301 301 302 307 322 323 321 323 321 322 323 325 328 323 331 324 332 333 334 334 339 341 342 343 343 343 345 346 347 347 349 352 351 352 353 353 353 353 353 353 353 353 353 353 352 352 352 351 351 351 351 350 350 349 349 349 349 348 348 348 348 347 346 345 345 345 345 346 345 345 345 346 347 347 346 345 345 346 344 345 345
309 304 302 298 299 299 292 289 289 290 296 297 295 299 301 302 301 301 304 313 317 321 326 323 326 324 321 327 331 334 337 336 333 333 336 337 340 341 342 342 342 342 345 346 347 348 349 351 352 352 353 353 353 353 353 353 353 353 353 352 351 352 351 351 351 350 350 349 348 348 348 347 347 346 346 346 346 346 346 346 345 344 345 345 345 346 346 347 347 346 346 345 345 345 345 345 345
311 306 301 294 293 295 292 289 290 290 294 298 298 300 302 302 302 301 301 300 304 316 321 326 324 320 318 333 322 334 337 337 336 337 338 339 340 340 341 342 341 342 344 346 347 347 351 351 352 352 353 353 353 353 353 353 353 352 353 352 351 351 351 351 350 349 348 347 347 346 346 346 345 345 344 343 343 343 344 345 345 345 345 344 344 345 346 347 347 346 347 347 346 346 346 346 346
306 303 301 296 294 292 288 291 291 293 294 298 300 302 312 306 303 301 300 301 306 318 322 324 322 314 319 327 325 332 332 336 337 339 338 338 338 339 340 341 341 342 344 346 346 348 349 352 352 352 353 353 353 353 353 353 352 352 352 351 351 350 349 348 348 348 348 347 346 345 344 344 344 343 342 342 342 342 342 342 343 344 344 344 344 344 345 346 346 346 346 346 347 347 346 347 346
303 303 295 293 290 292 288 287 291 292 294 297 298 301 302 303 302 302 300 301 303 320 323 326 326 315 326 323 326 330 329 335 335 335 337 338 338 339 340 341 342 342 343 345 347 348 349 354 353 352 352 353 353 352 352 352 352 352 351 351 350 350 349 349 348 347 346 345 345 344 344 343 343 342 342 341 342 342 342 341 342 343 344 344 343 344 344 345 346 346 347 346 346 346 347 347 347
298 295 297 295 290 287 288 288 288 293 294 297 299 302 302 303 302 301 300 300 319 319 325 330 326 326 327 325 325 334 334 334 333 331 336 338 340 339 339 341 343 343 344 346 346 348 350 350 354 353 352 353 352 352 352 352 351 351 350 350 349 349 348 348 348 347 346 345 344 343 343 342 342 341 341 341 341 341 341 341 341 342 342 342 343 343 343 344 345 346 346 346 346 347 346 346 347
297 295 296 288 288 288 287 288 291 293 294 296 298 302 303 302 302 300 299 310 319 321 322 327 322 329 325 326 326 330 333 332 332 334 337 340 339 340 340 341 343 344 346 346 348 349 349 350 351 353 353 352 352 352 351 351 351 350 350 350 349 349 348 348 348 347 345 344 344 343 343 342 342 341 340 340 340 341 340 340 341 340 341 341 342 342 342 343 344 345 345 345 346 346 346 347 347
295 292 288 289 286 288 288 289 289 295 295 295 299 303 303 302 302 301 298 310 320 320 319 325 331 328 319 323 331 333 330 332 335 337 338 339 340 340 341 342 344 345 345 347 347 347 348 349 349 350 351 353 352 352 351 351 350 349 349 349 349 348 348 348 346 346 346 345 344 344 344 344 343 343 342 341 340 340 340 340 340 341 340 341 341 341 342 342 343 344 345 345 346 346 346 346 347
297 294 292 289 288 287 288 288 288 292 291 295 299 303 303 302 301 302 299 298 314 318 321 330 331 330 326 329 328 329 331 335 337 338 338 339 340 340 341 343 343 344 345 346 346 346 347 349 349 349 349 349 349 351 352 350 350 349 349 349 348 348 348 347 347 346 345 344 345 344 344 343 343 344 343 342 340 339 339 340 340 340 341 341 341 342 341 342 342 343 344 343 344 345 346 347 347
299 294 291 289 288 289 288 291 290 290 292 297 300 303 302 304 302 300 300 299 304 324 332 336 332 323 321 327 325 329 332 336 337 338 338 338 339 340 341 342 342 343 345 345 346 346 347 348 348 348 348 348 347 347 347 349 350 349 349 349 348 348 347 347 347 346 345 345 344 344 345 344 344 344 343 343 342 342 340 339 339 339 340 340 340 340 340 342 341 343 343 343 342 343 345 346 346
298 295 290 291 286 289 288 291 291 291 293 296 301 303 300 303 303 305 313 305 322 332 332 325 334 322 327 330 330 334 335 336 337 337 337 337 338 339 340 340 341 343 344 345 345 347 348 347 347 347 348 349 348 346 345 346 349 349 348 348 348 348 348 347 346 345 345 345 345 345 345 343 343 341 344 341 344 343 342 340 340 338 339 340 340 340 341 342 342 342 342 343 343 343 343 344 344
298 298 292 287 287 288 288 290 290 289 293 297 300 300 299 301 301 325 330 330 326 327 329 328 329 335 331 332 336 336 336 337 337 335 334 334 334 335 337 338 340 341 342 343 344 346 346 346 346 346 347 347 347 346 345 344 347 348 348 349 348 349 347 347 346 346 345 345 345 345 344 334 332 334 334 335 344 339 344 343 342 341 340 340 339 339 340 341 341 341 341 342 342 343 343 343 341
298 293 288 288 287 289 291 294 293 293 295 298 299 300 299 297 299 327 328 327 327 328 329 331 334 334 336 337 337 336 336 334 334 332 331 330 331 331 332 334 337 336 338 340 343 345 345 345 345 345 345 346 347 347 346 345 345 347 342 341 341 344 346 347 342 339 347 338 345 340 336 340 335 332 334 345 340 341 342 344 343 343 343 343 342 341 342 341 342 342 342 342 342 343 343 333 334
296 289 290 291 290 293 294 296 297 296 296 299 300 299 299 297 299 317 320 320 323 323 326 328 329 333 335 335 334 334 334 333 332 330 329 328 329 329 330 332 333 334 335 339 341 343 343 344 345 344 344 345 346 346 346 344 343 341 340 340 343 346 345 345 339 342 334 335 336 336 340 336 337 336 339 342 345 345 342 344 344 344 344 345 345 345 344 344 343 343 343 343 342 342 332 328 329
296 291 291 292 293 296 296 297 297 297 298 297 298 297 296 297 299 308 319 318 321 318 321 324 327 327 330 332 333 333 333 332 331 330 329 328 328 329 329 331 331 332 334 338 339 341 342 342 343 344 344 345 345 345 345 343 341 340 339 338 339 338 336 341 336 337 337 336 336 336 338 337 339 337 347 349 350 342 338 346 345 344 346 346 344 343 343 343 344 342 341 341 338 332 326 326 328
295 295 291 292 294 294 297 297 298 298 298 298 297 295 297 298 299 306 320 319 318 320 324 323 326 328 330 332 332 333 332 332 332 331 328 329 331 330 330 330 331 332 334 336 338 339 340 341 341 342 344 344 344 344 345 343 341 339 338 337 335 334 335 334 335 334 335 335 334 337 336 339 340 338 336 336 334 334 332 333 334 335 336 334 342 334 334 336 335 333 331 333 324 323 324 324 325
295 296 297 294 294 295 297 298 299 298 298 296 296 295 298 299 299 317 320 313 313 320 328 331 331 331 331 331 332 333 332 331 331 329 328 328 330 330 331 332 334 333 335 335 336 337 339 340 340 341 343 343 344 344 344 344 343 339 338 336 336 334 335 334 334 333 333 334 335 337 340 338 338 338 336 335 337 334 334 333 334 333 333 336 337 336 334 334 334 333 332 332 328 324 323 324 324
293 295 296 296 295 296 297 298 298 298 298 296 295 298 299 298 298 312 320 314 321 330 332 333 333 333 334 334 333 332 332 331 329 328 327 327 330 331 331 332 332 332 335 334 336 337 339 339 339 341 341 342 343 344 343 344 341 339 338 338 336 334 333 334 334 333 333 334 336 340 336 333 332 334 334 334 332 333 333 334 335 335 334 333 338 337 335 335 333 333 332 330 327 325 325 325 325
295 293 294 296 297 296 297 299 299 297 295 296 297 298 298 296 295 314 324 324 328 331 334 334 333 332 331 328 329 328 329 328 327 327 328 329 331 331 332 332 333 334 334 334 336 337 338 338 339 340 340 340 341 342 342 341 339 338 338 342 339 338 336 334 333 333 335 336 339 338 338 332 331 330 330 331 331 331 333 334 334 335 335 335 337 336 333 333 333 333 332 333 332 332 332 331 331
295 294 295 296 296 297 299 299 298 295 295 296 297 296 297 296 296 323 324 324 327 329 331 331 330 329 328 326 326 326 327 328 327 328 329 331 332 333 333 333 334 334 333 334 335 336 338 339 339 339 339 339 339 341 340 339 338 337 337 336 336 341 335 333 333 334 334 336 338 339 340 332 331 330 329 331 331 330 333 335 336 335 333 335 335 334 334 334 333 332 332 332 331 331 329 330 333
296 295 297 297 297 296 298 298 299 299 298 298 296 296 297 295 327 326 325 325 327 329 329 328 327 326 325 325 325 326 326 327 328 328 328 331 332 331 331 332 333 332 333 334 334 335 337 339 339 339 339 338 338 339 338 337 335 334 333 333 332 337 333 335 335 335 335 336 335 338 337 332 330 330 329 329 330 331 333 333 334 332 333 334 333 335 333 332 330 330 330 330 331 329 329 331 332
295 296 296 296 297 296 297 295 297 298 297 297 296 297 297 298 315 313 326 326 328 327 326 326 326 324 324 325 325 326 326 327 327 328 328 329 330 330 331 332 332 332 333 333 334 335 337 338 338 339 338 339 337 337 336 335 335 333 334 335 338 336 336 337 336 335 334 334 336 337 336 337 332 332 331 330 330 331 331 332 334 333 334 333 332 334 334 332 330 329 330 330 329 328 329 328 330
298 296 296 296 297 297 297 295 296 296 296 296 297 297 298 305 312 316 324 327 328 323 323 323 323 323 323 324 325 326 326 327 328 327 326 327 328 330 330 331 331 332 332 333 334 335 336 337 337 338 338 337 336 335 336 334 334 336 338 338 336 336 336 334 335 335 337 334 336 335 335 334 334 332 332 332 332 330 331 331 333 334 331 331 333 332 333 332 331 330 332 331 330 328 327 328 329
296 297 293 292 294 295 297 296 297 295 296 296 298 296 294 301 311 321 327 327 325 323 321 321 321 321 322 323 324 325 325 326 327 326 327 329 330 331 330 332 332 332 333 334 334 335 335 336 337 337 337 336 334 334 335 336 337 338 338 336 336 336 336 335 335 334 334 333 332 334 333 335 333 332 332 332 334 329 330 331 332 332 332 332 333 332 331 330 331 329 329 329 330 328 330 330 331
296 295 293 292 292 291 296 297 297 295 296 296 297 286 289 294 313 321 327 324 322 320 319 320 319 320 321 322 323 323 324 325 325 326 328 329 330 331 331 332 333 332 332 333 334 334 336 336 337 337 337 335 335 335 336 336 337 337 336 335 337 336 335 335 335 333 335 333 333 333 333 334 334 335 331 330 332 330 329 331 332 334 334 332 332 332 331 330 330 329 329 329 332 328 328 328 328
289 290 293 287 286 287 294 296 294 294 296 297 298 288 288 294 314 322 324 324 321 319 319 318 318 319 321 322 322 322 323 325 325 326 328 330 330 331 331 332 332 332 333 332 332 333 334 334 337 336 338 336 337 336 336 336 336 336 335 335 335 334 334 333 332 332 332 333 333 332 334 335 334 333 333 331 331 331 331 331 332 333 333 332 332 331 330 330 329 329 329 330 328 328 327 328 326
289 287 285 287 288 288 293 294 295 294 296 296 296 289 290 299 313 322 323 322 320 318 318 318 318 319 321 322 322 322 323 324 325 327 329 329 330 330 331 331 332 332 332 332 332 333 333 334 336 336 337 336 336 337 336 336 334 334 335 336 333 333 333 332 332 333 333 333 334 333 334 334 332 332 334 331 330 331 331 331 332 333 332 331 330 330 330 329 327 327 329 328 327 325 325 324 324
287 287 285 286 286 286 289 294 295 297 296 295 296 287 304 309 315 321 322 320 318 317 317 318 318 320 321 322 322 322 322 324 326 327 327 328 329 330 331 332 332 332 332 331 331 332 333 335 336 335 335 335 336 336 334 333 333 333 333 332 332 333 333 334 334 333 332 331 332 333 335 337 334 333 332 331 331 332 331 330 330 331 331 330 328 327 327 327 325 327 326 328 325 323 322 321 322
283 285 284 284 285 284 287 289 293 295 296 292 293 297 303 307 316 319 320 319 316 316 317 318 319 320 321 322 322 322 323 324 325 326 326 327 328 329 329 332 330 331 331 331 331 332 333 334 334 334 334 335 334 333 332 332 333 333 332 332 334 332 333 333 333 333 333 333 333 334 335 335 335 335 336 336 334 333 330 329 329 331 331 328 326 325 324 324 323 324 324 325 324 321 320 319 319
284 282 282 284 285 287 289 288 290 293 295 294 296 303 305 310 316 317 318 317 315 315 317 318 319 320 321 321 322 323 323 324 325 326 326 325 327 327 329 330 330 331 331 331 332 332 332 333 334 334 333 333 332 332 332 332 331 331 331 331 331 331 331 331 332 332 332 332 330 330 330 330 330 329 332 333 330 328 326 326 326 327 328 325 323 322 322 322 323 323 322 321 322 319 317 317 317
285 283 282 284 284 284 288 292 292 294 291 291 297 297 309 312 314 314 316 316 314 316 318 319 319 320 321 321 322 322 323 324 325 326 329 330 330 330 330 331 332 331 330 330 330 331 332 333 333 332 332 332 332 331 331 330 330 330 329 330 330 330 330 330 329 329 328 326 327 326 326 326 327 326 326 327 327 324 322 323 323 323 322 322 321 320 319 320 320 320 321 320 317 317 316 315 315
287 286 285 285 285 286 288 290 293 294 292 291 294 305 310 311 312 312 314 313 313 315 316 317 318 319 320 321 321 322 322 322 325 328 331 331 331 332 332 332 331 331 330 329 329 331 332 332 331 330 331 332 330 329 329 329 327 327 328 328 328 329 328 327 327 326 325 324 323 323 323 324 324 324 324 322 321 324 321 320 321 321 321 321 320 318 318 319 319 319 318 320 317 313 312 313 313
288 287 285 284 286 285 289 291 293 294 293 290 303 309 310 310 309 311 312 313 313 314 315 316 317 319 319 320 321 321 322 325 327 328 330 331 331 331 332 331 331 328 329 330 330 331 332 332 331 331 332 330 329 329 329 328 327 328 328 328 328 327 326 324 322 322 321 321 321 320 320 320 320 322 323 321 320 320 320 320 319 319 319 319 319 317 317 319 316 316 315 315 316 313 310 312 312
287 286 284 285 283 287 289 290 292 295 294 299 308 307 309 310 311 311 312 314 315 316 317 317 317 317 318 319 320 321 322 323 325 327 329 330 331 331 331 330 330 330 330 330 331 331 331 331 331 332 331 329 328 329 328 327 327 329 330 329 326 325 326 324 321 321 321 318 319 319 318 318 319 319 319 321 318 318 317 317 317 316 317 318 315 314 314 313 313 313 313 313 311 312 311 312 310
286 285 283 282 283 286 283 289 301 307 294 301 305 307 308 311 312 312 313 314 315 317 318 318 318 317 317 319 320 320 321 322 323 325 327 329 330 330 330 330 330 330 330 330 330 330 330 331 331 331 330 329 328 330 329 328 329 329 329 328 326 323 321 322 320 319 317 316 316 317 317 316 317 317 317 317 316 316 316 316 316 315 315 316 314 312 311 311 311 311 311 312 309 307 306 307 311
287 287 284 284 285 287 286 286 302 306 308 309 306 305 306 309 308 309 312 316 316 316 317 317 318 318 319 321 322 322 322 322 323 325 326 328 328 329 329 330 330 330 330 330 330 330 331 331 331 331 330 330 330 331 328 330 331 328 327 326 324 322 321 319 317 316 317 318 316 314 314 315 315 316 316 316 317 314 315 315 315 314 314 313 313 311 310 310 309 309 309 308 307 304 304 305 307
285 286 288 287 286 287 290 297 299 293 296 303 299 288 295 307 309 309 312 313 313 315 315 315 316 317 318 318 320 322 323 324 324 325 326 327 328 329 329 330 330 330 330 330 331 331 331 330 330 330 330 330 329 328 330 330 329 325 323 321 319 318 316 316 314 313 313 312 312 313 313 314 314 314 314 315 316 316 314 314 314 313 312 312 312 310 309 309 309 308 308 307 306 306 305 304 303
283 284 290 289 288 289 292 295 292 286 286 299 301 286 285 305 306 309 311 312 312 315 314 315 316 317 317 318 320 321 322 323 324 326 327 327 328 328 328 329 329 329 330 331 331 330 330 330 330 331 330 329 328 328 330 330 326 324 323 322 320 318 317 317 317 315 312 312 312 311 311 312 312 313 313 314 314 315 313 313 313 312 312 311 312 309 308 308 308 308 309 307 306 306 304 302 301
282 287 290 290 289 288 288 294 291 286 295 302 301 292 291 295 303 310 313 311 311 312 313 314 315 316 317 318 319 321 322 323 323 324 326 327 328 328 327 329 329 330 331 330 330 330 330 330 330 330 330 329 328 328 328 329 326 324 323 321 321 318 317 315 314 313 313 313 310 310 310 310 311 311 311 312 313 314 313 312 312 312 311 311 311 308 307 306 307 307 307 306 306 305 303 301 300
284 288 291 289 290 288 287 289 287 287 292 289 297 298 290 291 299 310 312 307 309 310 312 313 315 316 317 318 319 320 322 323 323 322 324 327 327 328 329 329 330 330 330 329 329 330 330 330 330 329 328 327 327 328 328 327 327 324 322 321 319 318 316 315 315 316 312 311 308 308 308 308 309 310 310 310 311 312 314 310 310 310 309 310 312 308 307 307 306 304 303 303 303 303 303 302 300
289 290 291 289 289 288 289 285 286 286 285 280 293 296 287 285 300 305 310 308 307 309 312 313 315 316 316 317 318 320 322 322 323 323 325 327 328 329 330 330 329 330 330 330 330 330 329 329 328 327 326 326 326 327 327 326 325 324 321 319 317 316 316 313 312 310 309 308 307 306 306 306 307 308 308 309 309 309 309 310 309 309 309 310 310 306 306 305 304 304 303 302 302 301 301 301 300
289 290 289 287 285 286 287 284 283 282 277 282 292 297 292 285 296 303 303 305 309 311 312 314 315 315 316 318 318 320 321 322 322 324 325 327 329 329 329 328 329 329 329 329 329 329 329 328 327 326 326 326 325 326 326 325 324 323 320 319 317 315 313 311 308 307 307 306 305 305 305 305 305 305 307 307 307 308 309 310 308 308 309 311 308 305 304 304 303 302 302 301 301 300 299 299 299
290 286 286 285 283 283 284 281 283 277 276 282 290 297 295 285 287 304 309 312 313 312 311 312 314 315 315 316 318 320 320 321 323 324 325 327 327 327 328 327 327 327 328 328 327 328 327 326 325 323 323 323 322 324 325 324 323 322 321 320 317 314 312 309 307 306 306 305 304 304 304 304 304 305 305 305 305 306 307 306 308 306 306 305 304 304 304 303 303 302 301 300 299 299 300 300 297
290 285 286 282 276 278 274 280 274 276 278 280 287 297 289 290 293 304 309 311 312 313 314 314 314 315 316 316 318 319 320 321 323 324 325 325 325 325 325 326 326 326 326 326 326 325 323 322 322 321 319 319 319 320 320 320 321 321 321 319 316 314 311 309 308 306 305 305 304 303 303 303 303 303 303 304 304 305 306 305 305 305 304 305 304 304 303 302 302 301 300 299 299 298 298 297 296
288 286 282 280 275 274 272 274 274 275 280 284 284 296 290 288 292 300 307 311 313 314 315 316 316 315 316 316 318 319 319 321 323 325 325 325 325 325 326 325 326 325 325 325 323 321 320 320 319 318 315 315 316 316 316 317 318 319 319 317 315 313 310 309 308 306 306 305 305 304 303 303 302 302 303 303 303 305 305 305 305 304 305 305 305 304 303 302 301 300 299 298 298 297 297 296 296
288 287 285 280 278 276 273 274 275 276 278 281 286 289 281 286 288 296 307 313 315 315 315 315 316 316 316 317 318 319 319 321 323 324 324 324 325 325 325 325 325 324 324 322 320 319 318 317 317 315 313 313 313 313 313 313 314 315 315 315 313 312 311 309 307 307 305 305 304 304 303 303 303 303 303 303 305 303 304 303 303 303 303 303 303 303 303 302 302 301 300 299 298 297 297 297 296
286 286 286 280 283 280 279 277 278 279 279 280 285 282 284 288 297 305 306 311 313 315 314 315 315 316 316 316 316 317 319 321 323 324 323 324 324 325 325 325 324 323 321 320 318 317 317 315 314 313 312 311 312 312 311 312 312 312 312 311 311 312 312 309 308 307 305 305 304 304 303 302 303 302 303 303 303 303 302 302 302 302 302 302 302 302 301 301 300 299 298 298 297 300 296 295 295
284 286 283 287 288 286 279 277 281 278 278 277 278 289 293 294 300 304 306 310 311 313 313 314 314 315 315 315 316 317 319 321 323 323 323 323 324 324 324 324 323 321 319 318 317 316 315 313 312 311 310 310 310 310 310 310 311 311 310 310 310 309 308 307 306 305 305 306 305 304 303 302 302 302 303 303 302 302 301 301 301 301 301 301 301 301 301 300 300 299 298 297 296 296 297 295 295
285 282 286 288 290 287 283 276 275 273 275 276 283 287 287 288 285 300 304 307 309 311 312 313 314 315 314 315 316 317 319 321 323 324 324 323 323 323 323 323 322 320 318 317 316 315 314 313 312 310 309 308 309 309 309 309 309 309 308 308 308 308 308 307 307 306 306 306 305 304 303 302 301 303 303 303 302 302 302 304 301 301 300 301 300 300 300 300 300 299 298 297 297 297 296 296 296
289 289 290 288 278 280 278 278 275 274 275 273 281 287 286 289 293 303 302 306 307 310 311 312 313 314 314 315 316 319 321 322 322 322 322 322 322 322 322 321 321 319 317 316 315 314 312 312 311 310 308 309 309 309 309 309 309 308 308 308 307 307 307 306 307 307 307 305 304 302 301 301 301 302 302 300 300 300 300 300 300 300 300 300 300 300 300 299 299 298 298 297 297 296 295 295 295
290 289 289 288 286 281 280 280 279 282 273 274 280 286 285 292 299 304 304 306 308 309 310 311 313 314 315 315 316 318 320 321 321 321 321 322 322 322 321 320 318 317 316 315 314 312 311 311 311 310 309 308 308 308 309 308 308 308 307 307 307 307 307 306 306 306 305 304 303 301 300 299 299 300 299 299 299 299 299 299 299 299 299 299 299 299 299 298 297 297 297 296 296 295 295 294 294
285 284 282 286 288 287 288 286 282 281 272 270 274 278 283 290 299 305 306 308 309 310 311 312 313 314 315 316 317 319 320 320 321 321 321 321 321 321 320 319 318 317 316 314 313 311 310 310 309 309 308 308 307 308 308 307 307 307 307 306 306 305 305 305 305 305 304 302 301 301 299 299 299 298 298 298 298 298 298 299 299 300 298 298 298 298 298 298 297 296 296 296 295 295 295 294 295
285 285 281 283 284 282 281 279 284 281 283 276 277 276 280 288 303 308 308 309 310 312 312 312 313 314 315 316 318 319 320 321 321 321 321 321 321 320 319 318 317 316 314 313 312 311 310 309 308 308 308 308 308 307 307 307 307 307 306 306 305 304 304 304 304 303 302 300 299 298 299 298 297 297 298 298 298 298 297 297 297 297 297 297 298 298 297 298 297 296 296 297 295 295 294 293 293
Wind_Speed
10 8 8 5 0 3 2 5 1 2 2 2 1 1 1 0 1 3 4 3 1 1 1 2 4 5 3 5 9 3 1 6 5 8 5 0 5 7 10 13 13 12 12 9 8 8 8 10 13 14 13 14 14 14 14 14 14 14 13 13 13 13 14 14 14 13 13 13 13 12 11 12 11 12 11 11 10 11 10 11 11 11 11 10 11 11 11 11 11 11 10 10 11 12 11 10 10
7 8 6 4 1 0 1 1 3 4 4 4 2 1 2 0 2 2 4 3 3 2 1 3 6 5 8 7 5 2 4 6 3 2 3 3 8 6 10 13 13 14 11 9 8 8 8 9 14 13 14 15 14 14 14 14 14 13 13 12 12 12 13 13 13 13 13 13 13 12 12 12 11 11 11 10 9 9 9 10 10 10 11 11 10 10 9 10 10 10 9 9 10 9 9 9 9
7 8 9 5 3 4 1 4 2 1 2 2 4 4 1 4 1 2 4 2 1 1 3 5 4 2 1 2 1 2 2 3 7 4 4 5 11 4 9 11 11 13 12 8 8 8 7 9 13 13 15 14 14 14 14 14 14 13 13 12 12 12 13 13 13 13 13 12 12 12 12 12 11 11 10 10 9 9 8 8 10 10 11 10 10 10 9 9 9 9 9 9 8 8 8 8 8
4 2 2 3 2 5 2 4 3 1 3 4 6 3 2 3 3 2 4 2 1 4 1 1 1 1 1 1 1 3 2 0 2 6 6 7 1 9 9 10 11 10 9 8 9 8 6 11 14 14 14 14 14 14 14 14 13 13 13 12 12 12 12 13 13 13 13 13 12 12 11 11 11 10 10 9 8 8 8 9 9 11 10 9 9 9 9 9 8 7 7 7 7 8 8 7 7
4 4 2 4 3 3 1 0 1 1 4 2 5 3 3 3 5 3 2 4 3 5 0 2 1 3 1 1 0 0 1 4 6 3 6 3 9 8 10 10 10 10 10 10 10 9 9 17 14 13 14 15 14 14 14 14 13 13 13 12 12 12 11 12 13 13 13 12 12 11 10 10 10 10 9 9 10 10 9 8 8 9 8 8 8 8 7 7 7 6 6 6 6 7 7 6 6
1 3 2 1 1 2 4 1 2 1 6 1 4 7 7 6 4 0 2 6 6 4 1 0 2 2 2 4 1 1 2 1 4 4 6 5 12 11 11 10 9 9 10 10 10 8 9 17 15 13 13 14 14 14 14 13 13 13 12 12 12 12 11 12 12 12 12 11 10 10 10 9 9 9 8 8 8 8 8 7 7 7 7 8 8 8 8 7 7 6 5 5 6 6 6 5 5
3 4 4 4 2 3 3 2 3 3 7 4 3 7 10 11 6 7 0 1 4 4 1 2 3 3 3 0 2 2 2 7 6 4 5 12 14 12 11 9 10 11 11 10 9 8 11 15 13 13 13 14 15 14 13 13 13 13 12 12 12 11 11 11 12 12 11 11 10 9 9 8 8 7 7 7 6 7 7 7 6 6 7 7 7 8 8 7 7 6 6 6 5 5 4 5 5
1 1 2 2 1 2 0 1 3 4 4 6 4 6 11 10 7 5 7 4 3 4 4 4 3 3 1 3 2 3 10 6 12 14 15 12 13 11 10 10 11 11 12 10 8 8 14 14 14 12 14 13 15 14 13 13 13 13 12 12 12 11 11 11 11 11 11 10 9 8 8 7 7 7 6 5 5 5 5 5 6 6 6 6 7 7 7 7 7 6 6 6 5 4 5 5 5
3 4 1 4 1 2 2 2 3 2 6 5 9 8 10 7 5 5 11 3 0 4 6 8 4 2 2 3 3 3 6 11 14 15 14 14 12 10 8 9 13 11 10 9 8 8 9 13 13 12 14 14 14 14 13 13 13 13 12 12 11 10 10 10 11 10 10 10 9 8 8 7 7 7 6 5 5 4 4 4 4 5 6 6 6 6 7 7 7 6 6 6 6 5 5 5 5
1 1 1 1 3 1 0 4 1 4 4 5 5 11 11 8 8 5 6 12 4 5 3 5 3 2 3 6 2 4 4 13 15 14 12 12 11 9 9 8 11 15 10 8 8 9 8 15 13 12 12 14 14 13 12 11 11 11 12 12 10 9 9 10 10 10 10 9 8 8 7 7 7 6 6 5 5 4 4 3 3 4 4 5 5 6 6 6 7 6 6 6 5 5 5 6 6
0 4 2 3 1 3 4 6 4 5 4 4 7 9 9 8 6 6 3 2 1 3 3 4 5 5 4 3 4 2 8 13 17 14 11 10 11 11 9 8 7 12 13 10 9 8 8 10 17 13 12 13 12 11 11 11 12 12 11 11 10 10 9 10 9 9 9 9 8 7 7 7 7 6 5 5 4 4 3 3 3 3 3 4 4 4 5 6 6 6 6 6 5 6 6 6 6
0 1 0 3 4 6 6 4 3 6 5 4 5 9 1 4 6 6 7 5 0 3 2 1 4 4 5 2 3 5 7 8 14 13 11 11 10 10 10 7 7 6 11 12 9 8 9 9 9 14 15 13 13 13 12 12 11 11 11 11 10 9 9 8 9 9 9 8 7 7 6 7 7 6 5 4 3 3 3 2 2 2 2 3 3 3 4 5 5 6 6 6 5 6 6 7 7
2 2 4 2 4 3 3 1 4 3 3 4 6 5 1 7 8 10 2 2 2 3 2 4 9 4 3 2 5 7 9 7 11 12 12 10 10 9 8 8 8 9 9 10 10 10 9 8 8 9 12 17 14 14 13 12 12 12 11 10 9 9 9 8 8 8 8 8 7 6 6 6 6 6 5 3 3 3 2 2 2 1 2 2 3 3 4 5 5 6 6 6 6 6 6 7 7
3 6 6 4 1 3 5 3 1 1 4 5 4 5 5 4 5 3 2 4 4 4 2 7 7 7 5 8 7 7 9 10 12 11 11 11 10 9 10 8 8 8 8 9 10 10 9 8 8 8 10 9 8 11 14 13 12 12 10 9 9 8 8 8 7 7 7 6 6 5 4 4 4 5 4 3 3 3 2 2 1 1 2 2 3 4 4 5 6 6 6 7 7 8 7 7 8
3 2 3 1 1 1 2 4 4 4 7 4 3 1 5 5 4 6 5 5 5 2 3 4 4 3 6 11 7 9 11 14 12 12 12 11 11 10 10 9 8 8 7 7 8 9 9 9 8 7 8 7 7 6 6 10 13 11 10 10 9 8 8 7 7 6 6 6 5 4 4 3 3 3 3 4 3 2 2 2 1 1 2 2 4 4 4 6 6 6 7 7 8 8 8 8 8
3 4 2 2 3 5 5 2 1 1 8 4 4 2 6 13 2 4 3 2 1 1 5 3 0 1 3 7 14 16 17 15 13 13 14 13 11 9 9 8 7 7 7 7 7 7 9 9 7 7 7 7 6 5 6 6 11 12 11 10 9 9 8 7 7 6 6 5 5 5 4 1 1 0 2 1 3 2 1 1 0 1 2 2 3 5 5 6 6 6 7 7 7 8 9 10 10
2 2 1 1 5 4 3 3 4 6 6 4 5 4 5 9 3 1 3 4 7 4 2 2 1 3 6 4 17 20 17 17 15 16 15 11 10 8 7 6 6 6 5 6 7 8 9 9 8 7 7 7 6 5 5 6 8 12 9 10 10 9 8 7 7 6 5 5 4 4 3 1 1 1 2 1 1 1 2 1 1 0 1 2 3 4 4 5 6 6 6 7 8 7 8 9 10
2 3 4 5 4 6 5 6 6 3 4 6 6 5 1 7 3 0 3 7 3 4 5 2 7 6 9 11 18 19 19 19 17 17 14 11 9 9 7 6 6 7 7 7 7 8 8 8 9 8 7 8 7 5 4 4 4 8 5 4 4 5 6 7 4 2 4 0 2 1 1 1 1 1 1 3 1 1 1 2 1 1 1 2 2 2 3 4 5 6 7 7 7 7 7 5 5
4 2 5 11 6 5 7 6 7 2 6 8 6 4 0 5 2 1 1 1 1 3 2 3 10 11 14 16 18 18 17 16 15 15 16 13 9 11 9 8 7 8 8 6 7 7 6 7 7 9 8 9 9 7 5 4 4 3 3 3 3 5 4 4 2 2 1 1 0 1 1 2 1 2 2 3 2 4 3 4 2 1 1 2 2 3 3 4 5 5 6 7 8 7 3 4 4
4 5 8 7 5 5 7 4 6 7 6 6 7 5 1 5 1 1 2 3 2 6 7 6 11 14 15 15 16 15 15 13 11 11 11 8 5 8 10 10 8 7 7 6 7 6 7 8 10 9 9 10 8 6 5 5 4 3 3 3 3 3 2 3 2 1 1 1 1 2 2 2 2 2 5 8 4 1 2 3 4 4 4 3 4 2 3 3 3 4 5 6 5 3 3 3 4
2 3 5 5 6 6 8 7 7 8 5 6 5 5 8 6 2 1 2 2 4 7 3 7 14 17 18 17 16 15 15 13 12 12 11 8 4 6 5 5 5 5 4 5 6 8 9 9 9 9 9 9 9 7 7 5 5 4 3 3 2 2 2 3 3 1 1 2 2 2 2 2 3 2 1 1 2 1 1 2 2 3 2 3 4 3 2 3 2 2 2 2 2 3 4 4 4
3 11 6 6 4 5 5 10 10 7 7 4 4 5 10 4 4 1 7 6 8 3 8 16 20 22 22 20 17 14 15 15 13 13 11 10 4 4 3 4 3 3 3 6 7 8 8 9 9 8 8 9 8 7 6 7 7 5 4 4 3 1 2 1 2 2 2 2 2 2 1 1 1 0 1 1 1 0 0 1 3 2 2 3 2 4 3 3 3 2 2 2 2 2 3 3 3
7 4 5 6 6 7 3 4 6 9 7 6 6 7 4 6 6 2 7 2 1 3 13 18 18 17 17 17 16 15 15 15 11 11 12 7 4 6 9 8 9 9 7 8 8 8 7 6 6 7 7 7 7 6 6 6 6 5 5 4 4 3 2 1 1 1 2 2 2 2 2 0 1 0 1 1 1 1 1 1 2 2 2 2 3 3 3 2 3 3 2 2 2 2 2 2 3
4 6 1 6 5 8 4 6 8 7 8 8 6 3 4 4 7 2 5 2 4 9 14 15 15 15 17 16 13 14 14 14 16 18 22 23 20 18 15 14 11 8 8 9 8 7 7 7 6 7 6 5 5 6 6 6 5 5 5 4 4 4 3 2 1 1 0 0 1 1 1 1 2 2 1 1 2 2 2 2 2 1 1 2 2 2 2 2 2 2 3 4 4 3 3 3 3
10 8 3 2 4 5 7 8 6 5 6 6 1 4 7 5 2 3 5 5 5 9 13 16 17 17 15 16 16 15 14 14 19 20 15 14 18 18 15 12 12 11 11 10 10 10 10 9 8 9 7 8 6 7 7 5 5 4 4 4 4 3 2 1 1 0 1 0 0 1 2 2 3 3 2 2 2 3 3 3 3 2 2 2 1 2 1 3 4 4 4 4 4 4 3 3 2
6 6 1 2 5 4 8 7 11 10 3 1 3 7 9 3 5 6 8 5 5 10 14 16 17 17 15 15 16 17 16 16 16 15 14 11 17 16 13 11 10 11 12 11 10 10 9 8 10 9 8 8 7 7 5 4 5 4 3 3 2 2 2 3 2 3 2 1 1 1 1 2 3 3 2 2 3 3 3 3 2 2 4 3 4 4 2 4 3 3 3 2 3 3 3 3 3
3 7 6 7 7 4 4 6 8 7 5 4 6 9 11 3 3 1 4 7 8 11 13 13 17 16 14 13 12 13 17 16 17 12 10 11 7 16 14 9 9 9 7 10 9 8 7 8 8 8 6 7 7 6 5 4 4 4 3 3 3 3 4 4 4 4 4 1 0 0 1 2 2 3 2 2 2 3 3 3 4 3 4 4 2 3 2 3 2 2 1 0 0 0 1 1 2
7 3 5 10 9 8 6 5 10 1 3 7 8 11 11 4 1 5 10 8 7 14 12 12 12 13 13 12 11 9 9 12 13 12 16 14 13 11 12 12 11 8 8 9 7 6 7 7 9 8 7 7 7 6 5 5 5 4 4 4 4 5 5 4 4 4 4 2 1 1 2 3 2 2 3 2 2 2 3 3 3 4 3 2 3 3 3 2 2 2 1 0 0 1 1 3 3
2 7 5 4 5 10 11 11 10 4 6 6 10 7 9 3 3 5 12 7 4 10 12 10 11 10 9 9 8 8 9 10 10 11 15 16 15 13 15 11 10 8 5 5 6 6 9 9 7 6 5 5 6 6 6 5 5 5 5 5 5 5 5 4 4 4 4 3 2 2 2 2 2 2 2 2 2 2 1 2 3 3 3 3 3 2 3 3 3 3 2 1 2 3 5 6 4
1 1 4 4 4 7 13 6 7 6 5 6 7 5 9 3 3 5 10 8 7 8 9 9 8 8 7 7 8 7 6 8 10 11 11 11 12 12 13 10 9 8 6 4 6 7 4 3 3 4 5 6 6 5 5 5 5 5 5 5 5 5 4 4 4 4 5 4 3 3 3 2 2 2 1 2 3 3 2 3 3 4 4 3 3 4 4 4 4 4 3 3 4 5 6 5 5
3 2 4 6 6 7 6 6 5 9 6 7 9 7 9 3 2 6 7 9 12 10 8 7 8 7 7 7 7 7 7 6 9 8 11 10 10 9 10 9 9 7 5 4 5 4 4 3 4 4 5 6 6 6 6 6 5 6 5 5 4 4 4 4 4 4 5 4 3 3 2 2 2 2 1 3 3 3 4 4 5 4 4 3 5 4 4 4 4 4 4 4 4 6 5 6 5
1 5 7 5 10 3 5 4 9 11 2 8 8 7 8 3 3 6 7 8 7 11 9 8 7 7 8 7 6 7 7 4 4 6 9 9 9 9 7 8 7 7 5 5 5 5 5 3 4 5 5 7 7 7 7 7 6 5 5 5 5 4 5 4 4 4 5 4 4 3 2 2 2 1 2 3 4 4 4 5 4 4 3 4 4 4 5 5 3 3 3 4 6 7 6 7 5
2 8 6 9 8 4 3 5 8 12 6 2 13 5 2 1 5 7 5 7 7 10 10 9 8 9 9 8 7 6 7 5 4 7 7 5 4 5 8 10 11 9 6 6 6 6 6 4 5 7 7 8 8 8 7 6 6 5 5 5 5 6 5 5 4 4 5 4 4 3 2 3 1 0 1 2 4 5 5 4 4 3 3 4 5 5 5 3 2 3 5 6 6 6 7 7 7
7 4 7 3 7 4 7 6 1 9 9 5 6 5 5 1 12 9 5 9 9 10 11 11 10 9 8 7 7 7 8 8 10 8 6 4 3 3 2 4 3 4 4 5 5 6 6 5 4 6 6 7 7 8 7 7 6 6 6 6 6 7 6 5 4 5 5 4 4 4 4 4 3 3 3 3 5 4 4 4 4 4 4 5 4 4 3 1 2 3 6 7 7 7 6 6 7
12 5 5 2 2 7 7 6 4 9 9 10 3 2 1 1 10 8 6 6 8 11 13 13 11 10 9 8 8 8 8 10 7 4 4 4 3 3 4 4 4 5 6 8 8 7 6 5 4 5 7 7 7 7 8 7 7 7 7 7 7 7 5 5 4 5 5 5 5 4 4 4 4 4 5 5 5 4 5 5 5 4 3 2 3 3 3 3 4 5 6 6 6 6 5 4 4
5 5 4 5 6 6 11 11 4 12 7 7 9 8 6 7 9 6 6 6 6 7 7 10 10 10 9 8 8 9 7 6 3 4 4 4 4 5 6 6 6 6 7 6 7 6 7 6 4 4 4 6 6 6 6 6 6 6 8 7 8 6 6 6 6 6 6 6 5 5 5 4 4 4 5 4 5 5 5 5 5 3 2 3 5 6 5 5 4 5 6 5 4 5 6 6 6
3 3 5 6 6 2 4 4 5 7 6 9 7 6 10 11 11 7 8 5 4 8 12 10 12 13 12 10 11 8 7 6 4 5 5 6 8 7 7 7 8 8 7 7 7 6 6 6 6 6 4 5 7 7 6 7 7 6 6 6 7 5 6 6 6 5 6 6 5 5 5 5 4 4 4 4 5 5 5 5 4 3 3 5 6 5 2 3 4 3 3 5 5 7 7 7 8
2 0 3 5 6 7 4 6 3 6 7 1 2 9 10 11 5 4 4 7 11 13 14 14 13 11 8 10 11 8 7 4 6 6 7 7 8 9 8 8 10 10 8 8 9 7 7 6 6 6 4 3 3 5 6 5 4 5 6 6 7 5 6 6 6 5 5 5 5 5 5 4 4 5 4 4 5 6 6 6 5 5 4 5 4 2 3 5 7 7 3 5 5 7 6 7 8
3 2 2 0 4 3 5 4 2 1 3 0 6 9 8 6 4 4 6 7 5 7 8 12 13 12 10 8 8 10 8 9 8 7 8 8 9 9 8 7 7 9 10 8 7 8 8 7 6 6 5 4 3 4 6 7 6 5 7 5 7 6 4 4 5 5 5 6 6 5 4 4 5 5 5 5 6 6 6 6 5 4 4 2 4 5 6 8 7 7 7 4 4 4 5 7 8
6 3 3 5 3 6 6 2 5 7 3 7 4 10 5 4 4 4 3 6 3 4 4 5 7 11 12 13 12 13 11 12 13 10 8 10 9 9 8 8 7 7 8 8 7 7 6 6 6 6 5 4 4 5 7 7 8 8 8 7 6 6 6 5 6 5 5 6 7 5 5 4 5 5 5 5 6 6 5 5 4 4 4 3 5 6 8 9 8 7 7 6 3 6 5 7 8
7 5 3 3 2 1 3 4 3 3 7 10 11 7 1 3 5 4 4 3 6 5 5 5 5 5 5 5 7 9 14 13 12 9 8 11 11 10 9 8 9 8 8 8 8 7 5 7 6 6 5 5 5 8 9 8 10 9 9 8 9 8 5 5 5 5 4 4 5 6 5 5 5 5 5 6 6 6 5 4 5 5 6 6 6 8 8 7 7 6 6 7 6 3 5 4 8
4 4 8 5 2 3 0 1 7 4 3 5 7 3 3 3 5 5 6 5 7 7 8 9 9 7 8 10 9 9 7 7 11 9 9 11 10 9 9 9 9 8 9 7 7 6 7 6 7 6 5 5 6 8 9 9 9 11 10 9 8 6 5 4 4 4 3 4 4 2 5 5 5 5 5 5 5 5 6 6 6 7 7 7 7 7 7 7 8 8 6 5 6 5 5 6 6
6 7 10 6 4 1 2 4 4 4 5 7 1 7 4 4 7 7 8 8 8 7 11 11 10 9 9 9 10 11 11 10 9 7 7 13 12 10 10 10 9 9 8 7 7 7 6 6 7 7 6 5 6 7 8 9 9 8 9 8 7 7 7 3 3 4 4 4 4 5 5 5 5 5 5 5 6 6 7 7 7 7 7 6 6 7 8 7 6 5 5 7 6 5 6 9 7
5 3 13 9 6 5 3 3 4 1 1 2 2 1 5 3 9 7 9 10 9 9 11 12 11 11 11 10 11 11 11 11 13 12 7 12 13 14 13 11 9 9 8 8 8 7 7 7 7 7 6 6 5 6 7 8 10 8 8 7 6 6 5 6 5 4 3 3 6 5 5 5 5 5 5 6 6 6 6 7 7 7 7 6 7 7 7 5 6 6 6 7 8 8 8 9 8
2 4 12 9 9 6 4 3 2 1 5 1 5 1 2 5 3 9 10 10 11 13 15 15 13 12 12 12 11 12 12 12 13 13 11 9 12 10 10 10 9 9 9 9 8 8 7 7 7 6 5 6 6 7 8 6 8 8 8 8 7 5 6 6 5 4 5 4 6 5 5 5 5 5 5 6 6 6 6 6 6 7 7 7 6 7 7 7 8 8 9 10 10 9 9 7 9
3 7 7 5 4 4 6 5 4 1 1 5 8 5 4 4 3 9 10 10 13 15 18 15 15 15 14 12 12 11 10 10 10 11 11 7 7 8 9 9 9 8 8 9 9 8 7 7 8 8 6 5 5 6 7 7 7 8 8 8 10 7 6 6 4 5 5 4 6 5 4 5 5 5 5 5 6 5 6 6 6 7 6 6 6 7 8 9 8 9 10 9 10 10 9 10 10
3 5 4 2 3 1 1 2 2 2 4 10 9 11 8 5 6 13 14 13 18 16 9 9 11 13 14 13 13 12 11 10 9 9 9 8 6 8 10 11 9 8 8 9 9 8 8 7 8 8 6 5 5 6 7 8 7 7 8 9 10 10 8 8 7 6 5 5 6 4 4 4 3 5 5 5 5 5 6 6 6 6 6 6 7 8 8 8 8 9 9 11 11 11 9 10 11
5 3 4 3 2 2 1 1 1 3 8 7 6 13 11 8 2 8 14 15 16 15 18 19 19 19 16 13 12 13 12 10 9 9 10 11 10 11 9 10 10 9 10 10 8 9 8 7 8 9 6 6 5 6 7 7 7 7 8 10 10 9 9 7 8 7 6 6 5 5 3 4 3 4 5 6 5 5 5 6 6 7 7 7 8 7 8 8 8 9 9 9 9 9 9 10 9
8 6 7 8 2 3 3 1 1 8 11 3 8 10 0 11 5 13 21 19 13 17 17 19 21 20 17 15 15 12 11 11 10 10 10 11 11 11 11 10 10 10 10 10 9 8 8 8 9 10 7 5 6 6 7 6 7 7 8 9 9 8 7 8 8 7 6 7 6 5 5 5 3 5 5 5 3 4 5 6 7 7 7 7 8 8 8 9 9 9 9 10 10 10 9 9 9
11 10 9 10 5 5 6 5 1 5 5 5 4 10 7 2 8 9 16 21 18 17 18 16 18 19 19 16 14 12 12 11 10 9 11 9 12 12 13 12 10 9 10 10 10 9 8 8 8 10 8 5 6 6 7 7 7 7 8 9 8 8 8 8 7 8 6 5 6 5 5 5 5 4 4 4 3 4 5 5 6 7 7 8 9 9 9 9 9 9 9 10 9 8 9 9 9
10 4 8 7 5 5 7 5 10 8 7 2 1 6 4 4 5 2 14 17 16 9 2 3 4 4 6 8 9 11 11 11 10 8 11 10 10 12 11 10 10 9 10 10 9 9 9 9 9 10 9 6 7 7 7 8 7 8 8 8 8 7 8 7 6 6 7 7 5 6 5 4 5 4 5 3 3 5 5 6 7 8 7 8 8 9 9 9 9 9 9 9 9 8 9 9 8
4 5 6 5 11 6 4 6 5 4 3 1 2 4 4 7 2 5 4 6 6 8 8 9 10 10 10 10 11 12 12 11 10 9 11 12 10 11 11 11 10 10 11 10 11 9 9 9 9 9 9 7 7 7 7 8 8 7 8 9 9 9 8 7 6 5 5 6 7 7 6 4 5 4 3 4 4 5 7 7 8 8 8 8 8 9 9 8 8 9 9 9 10 6 8 9 7
5 8 10 12 5 4 2 1 0 2 3 5 1 2 2 6 5 4 1 9 8 9 9 11 11 13 13 12 12 12 12 11 11 10 11 13 10 10 11 12 11 11 10 11 10 9 11 11 10 9 8 6 7 7 8 8 8 9 8 9 9 9 9 9 8 7 7 5 7 7 6 5 4 4 5 4 5 5 6 7 8 8 8 8 8 9 9 9 8 9 9 9 9 6 7 7 6
6 8 8 4 4 5 3 5 1 1 4 4 2 7 2 3 5 2 3 10 8 12 12 12 12 13 15 13 13 13 12 12 12 10 11 11 10 11 10 10 11 12 12 11 10 7 10 10 11 11 8 9 7 8 8 8 9 9 8 8 8 8 8 8 8 9 7 7 7 7 6 6 4 4 4 4 5 6 7 8 8 8 8 8 8 8 9 9 8 8 8 7 6 6 7 6 6
11 12 6 9 4 8 3 2 3 1 2 2 2 2 3 7 4 4 6 12 11 11 10 12 14 15 16 14 13 12 11 10 11 12 12 12 11 12 11 11 10 11 12 11 9 8 9 9 9 10 10 8 8 7 7 6 7 7 7 8 8 8 7 7 6 7 7 8 8 7 6 5 5 4 5 5 6 6 7 7 7 7 8 8 8 8 8 8 8 8 6 7 6 6 6 6 4
1 6 9 6 5 3 4 6 3 4 3 2 3 2 4 5 5 13 16 15 17 15 13 16 18 19 16 14 14 15 14 12 12 12 13 14 12 12 13 14 12 12 12 11 10 8 10 9 9 8 8 7 7 8 8 8 6 8 7 7 6 7 7 7 6 7 7 8 8 8 6 6 5 5 5 5 6 6 7 7 7 8 8 7 8 7 8 8 7 7 6 6 5 6 6 6 4
8 4 5 6 5 2 4 1 4 4 4 3 3 1 6 9 7 12 15 17 17 19 19 17 16 16 16 16 15 14 14 13 12 12 12 14 13 11 11 12 12 11 10 10 9 10 9 9 9 10 11 9 8 7 8 7 7 7 8 8 7 7 7 6 6 6 8 8 7 6 6 6 5 5 5 7 7 7 7 7 7 7 7 7 8 7 6 7 7 7 6 6 5 6 6 5 5
8 8 6 5 8 4 10 9 2 2 1 2 4 4 7 10 4 13 15 15 16 18 20 18 17 17 17 15 15 14 13 13 13 12 11 12 11 11 11 11 11 11 11 11 9 10 10 9 9 9 9 9 10 8 7 7 6 7 8 7 7 6 7 7 8 7 8 8 7 7 6 6 7 4 6 7 7 6 6 8 8 7 7 7 7 7 6 7 7 7 6 5 6 6 5 5 5
Wind_Direction
317 313 308 305 59 134 91 4 40 314 47 310 76 307 244 43 276 14 327 335 327 239 170 338 120 147 174 204 200 186 307 134 194 138 213 231 129 128 124 128 129 127 133 137 141 140 137 136 140 138 136 133 128 126 124 122 119 115 108 107 109 108 105 104 103 105 103 102 101 99 101 104 103 103 102 103 98 96 98 99 90 81 81 78 75 72 70 71 72 80 81 87 105 102 96 93 88
305 317 307 325 299 71 340 91 97 359 47 8 254 126 247 285 48 284 322 235 199 299 47 97 76 64 28 74 93 123 36 31 355 96 77 94 107 93 127 130 133 131 134 137 136 129 129 142 139 138 138 132 129 127 126 124 119 113 112 112 111 109 108 106 105 104 104 102 101 98 99 98 101 101 101 101 99 94 95 99 97 90 80 73 70 70 72 73 74 81 85 92 103 98 90 87 81
325 347 335 12 30 61 38 43 3 357 51 342 265 197 278 325 72 308 313 229 236 134 122 100 99 42 303 343 92 21 227 35 76 67 80 132 121 148 134 132 132 131 133 133 126 125 130 136 136 140 134 133 131 130 128 122 118 118 117 115 114 113 109 106 103 103 102 102 103 103 101 102 102 103 101 100 101 103 97 94 87 82 79 71 65 65 63 67 70 78 84 90 98 94 89 76 73
324 39 356 16 334 26 55 22 92 96 314 216 293 249 221 287 298 140 286 265 184 143 198 180 87 262 209 308 251 101 93 199 76 117 127 165 49 133 129 127 127 125 123 125 125 127 129 137 138 139 134 135 133 132 127 123 122 120 118 118 115 111 106 103 107 105 104 104 104 107 108 107 105 103 103 102 103 102 95 84 80 76 75 70 62 56 51 54 60 64 67 75 78 77 75 69 67
12 337 81 85 101 4 95 108 149 88 324 244 282 224 219 216 272 138 264 256 179 185 9 339 40 338 121 144 218 94 210 86 110 121 116 70 109 126 126 129 129 127 125 127 128 130 137 140 138 134 136 136 135 132 127 125 123 122 120 117 116 113 109 109 107 103 102 102 103 104 106 104 103 103 102 97 88 83 84 84 83 82 81 79 73 69 63 57 53 54 58 63 68 70 64 65 61
46 36 349 87 62 177 48 43 340 272 237 171 289 296 304 293 290 59 211 240 223 223 239 153 186 210 15 323 49 77 151 72 166 93 130 129 124 131 131 131 128 125 126 125 129 135 140 140 134 135 138 137 136 132 127 126 124 122 120 118 116 114 113 109 103 103 104 100 102 104 104 105 102 105 102 101 88 85 87 87 81 80 80 77 69 64 61 59 61 57 52 55 60 55 61 54 50
342 22 356 22 12 50 165 147 215 229 276 167 253 292 300 302 308 329 166 37 264 287 303 203 119 105 62 319 26 38 355 125 111 119 106 130 123 132 135 132 126 122 124 126 128 130 137 130 132 136 139 139 136 130 128 128 127 124 121 122 120 117 113 111 106 102 104 106 107 108 106 106 108 108 107 111 109 93 81 75 87 83 76 68 64 59 56 58 57 56 54 52 55 54 52 53 47
58 87 329 94 287 46 74 163 229 153 275 176 239 277 281 287 319 310 299 147 225 213 230 158 185 92 226 350 144 320 22 39 93 101 114 119 125 130 130 129 125 124 128 128 130 131 130 129 135 139 140 138 131 131 131 128 128 126 125 125 119 116 115 105 103 103 105 107 109 108 110 109 109 108 103 105 113 112 107 101 82 80 75 74 68 61 57 59 59 54 48 49 48 51 46 42 38
353 84 344 72 63 30 68 186 241 234 286 287 276 252 271 283 290 297 296 243 167 243 192 176 190 131 234 46 45 351 46 80 92 108 115 121 128 132 130 137 132 130 131 132 131 125 127 137 138 139 137 133 132 131 131 133 132 130 126 117 113 115 113 112 111 108 106 108 110 111 113 113 111 108 107 108 108 103 102 104 95 84 77 73 65 59 55 55 57 54 47 42 41 35 30 28 22
22 56 268 141 130 205 21 295 155 236 222 244 264 287 293 303 298 270 272 310 245 194 197 88 93 119 108 69 47 11 81 101 104 100 114 125 127 123 124 133 136 131 130 128 124 128 139 138 136 134 134 134 133 132 133 131 128 122 119 111 118 119 121 118 114 112 111 112 114 116 116 114 110 111 112 116 114 112 110 115 98 86 76 69 63 57 53 51 50 49 43 33 25 21 17 5 8
7 9 148 94 70 178 176 252 263 300 257 304 303 275 266 269 259 286 289 243 95 123 144 118 42 96 67 46 51 46 107 118 116 124 131 125 119 121 118 122 129 131 131 130 133 138 136 136 134 131 130 131 128 125 126 127 120 114 114 120 125 125 125 125 124 122 119 118 121 123 118 115 111 108 110 111 113 113 116 106 98 85 75 65 61 55 50 51 48 44 38 28 20 8 359 356 358
354 88 52 133 187 173 219 197 231 253 289 318 281 277 264 268 303 306 326 32 343 100 140 179 179 137 65 65 67 96 102 107 120 128 122 116 114 115 120 124 126 124 129 134 137 134 136 137 135 135 132 128 129 129 130 125 117 120 124 129 128 128 133 133 131 128 126 126 129 129 126 119 114 108 107 108 110 113 103 109 96 74 66 58 50 49 48 45 44 42 32 23 17 2 348 347 346
134 130 88 114 220 165 200 180 246 240 324 274 249 279 5 323 293 286 281 91 60 116 272 208 143 82 96 87 119 122 108 128 125 121 117 117 117 119 119 122 129 131 135 135 137 138 137 135 136 132 133 135 135 132 128 122 123 128 129 128 130 137 142 139 137 132 130 130 135 134 127 124 120 121 115 110 110 111 105 92 86 53 40 40 36 29 30 33 31 27 27 21 11 360 346 341 339
126 180 134 226 97 164 148 200 248 258 264 247 252 268 298 274 266 289 29 324 215 181 247 143 133 114 99 116 134 138 136 137 121 115 112 111 116 120 123 127 133 137 141 143 141 139 135 131 131 135 135 134 138 133 128 127 129 130 132 134 141 145 145 142 138 133 129 136 139 133 131 130 125 126 131 123 109 97 98 90 71 43 15 15 13 14 13 15 18 17 14 11 2 356 347 342 339
196 176 87 131 238 134 236 178 201 211 253 237 253 279 304 258 290 318 305 290 276 179 94 84 164 134 200 157 155 164 147 140 118 109 103 104 112 120 126 132 137 140 142 143 137 135 131 129 129 126 129 128 127 128 134 136 132 134 139 145 147 150 145 143 137 134 137 140 140 142 143 138 139 136 136 135 135 123 97 87 85 9 9 357 358 1 358 5 4 2 5 2 355 350 346 342 337
168 96 91 154 226 185 271 171 202 218 264 213 250 19 306 284 320 322 311 181 119 73 119 192 79 182 158 154 159 144 139 127 116 114 112 112 120 123 130 133 138 140 139 140 136 131 131 131 127 130 128 129 129 130 133 136 141 145 148 149 152 150 146 140 138 143 147 148 151 151 154 142 124 185 167 145 152 145 118 137 93 71 9 358 353 355 358 356 354 354 354 352 346 344 342 339 338
83 85 177 102 245 158 249 171 158 236 248 261 272 294 265 286 339 71 347 77 109 154 61 23 338 44 124 136 138 130 128 122 121 121 118 127 133 133 129 132 134 138 143 147 144 140 136 135 133 131 133 133 136 136 133 137 150 149 152 153 153 149 146 142 146 156 157 160 146 163 143 87 29 351 347 335 278 157 198 215 187 282 23 2 358 349 347 344 342 345 345 337 336 341 342 344 337
82 170 141 217 181 182 206 195 191 205 229 278 284 256 287 289 341 301 27 33 73 67 61 8 47 53 117 120 120 126 129 130 135 133 135 139 140 134 137 145 156 161 165 156 150 142 139 140 142 138 142 144 147 141 139 144 152 148 149 151 140 146 145 146 140 162 167 109 172 160 151 192 180 237 270 279 265 289 299 224 200 218 294 338 348 340 336 337 335 334 332 327 325 334 343 347 330
169 168 160 220 171 225 181 202 206 160 248 250 261 288 151 255 250 227 121 288 180 125 41 59 78 81 88 101 116 125 133 137 143 140 139 136 131 136 148 161 178 171 168 151 143 143 141 140 145 150 151 154 154 151 145 152 132 143 155 138 143 146 155 136 149 153 69 133 40 207 229 242 212 227 237 236 223 244 260 281 272 266 254 292 309 319 319 316 321 323 326 323 324 334 346 323 318
229 127 209 214 205 220 220 197 222 216 228 256 273 284 16 260 354 311 213 201 215 204 151 98 104 113 106 112 118 128 136 136 126 117 100 85 111 146 160 170 183 182 165 154 144 145 152 157 157 158 159 160 158 151 148 136 136 156 145 140 131 127 97 132 153 93 171 213 260 248 265 280 274 254 258 261 270 186 243 297 295 314 324 325 313 332 308 304 321 335 326 325 345 336 321 316 320
234 193 211 199 199 195 232 220 228 231 220 245 256 312 308 289 308 146 158 111 287 260 74 133 134 125 127 130 137 138 138 129 119 110 108 114 166 184 163 165 175 181 167 141 149 164 170 165 157 159 161 162 160 157 154 141 151 156 146 145 136 141 142 140 162 177 205 238 251 258 263 272 303 306 351 22 62 40 342 307 317 316 315 310 310 310 307 313 339 329 329 330 329 323 328 317 324
133 219 195 183 166 213 232 219 226 231 232 233 283 294 262 326 314 169 151 191 218 207 123 131 140 142 140 142 141 136 132 125 125 123 128 133 153 139 156 194 231 210 162 163 174 174 176 169 165 158 158 163 163 159 150 156 159 164 163 162 151 185 196 176 153 196 230 244 241 249 257 306 323 360 350 24 43 57 267 277 278 278 284 281 300 299 308 321 324 323 325 322 335 310 299 299 297
230 244 206 193 183 192 219 214 221 221 242 232 252 247 305 294 279 221 180 194 235 123 135 141 138 133 127 126 132 133 132 127 109 101 102 121 128 232 192 192 191 183 182 184 180 182 173 168 160 156 159 160 159 149 149 158 169 171 163 162 161 196 201 215 227 208 243 248 232 213 162 180 261 124 8 7 353 338 277 270 270 271 271 290 294 277 302 313 308 316 327 332 319 322 317 314 316
255 235 144 210 196 208 222 220 219 224 213 230 224 344 283 288 288 31 62 23 131 129 133 126 115 112 122 124 128 129 130 123 119 135 180 164 177 183 192 191 192 183 181 180 183 174 172 171 163 160 157 147 149 154 159 170 164 164 167 171 181 195 178 209 216 258 306 130 191 170 151 182 177 86 44 20 338 345 351 328 317 298 280 280 266 245 268 326 334 350 8 14 13 20 14 354 340
223 235 215 253 186 228 235 244 245 218 226 238 339 262 250 235 225 91 79 107 125 118 118 115 118 123 126 126 130 130 131 138 150 175 173 181 164 178 190 191 188 180 182 183 183 175 175 168 163 169 158 156 159 165 175 171 160 153 153 165 179 200 181 170 181 159 115 103 279 168 170 182 104 73 33 8 353 359 340 344 331 334 326 343 9 29 46 54 46 34 33 19 5 0 1 346 341
222 223 208 227 239 205 227 244 247 238 236 188 292 269 269 215 132 63 119 133 133 131 119 124 126 129 132 135 139 143 147 160 170 164 167 172 174 168 202 199 192 187 185 181 182 180 171 158 170 168 160 162 163 169 170 156 154 150 154 162 165 180 141 156 147 119 107 77 280 216 165 142 105 95 43 10 15 356 345 330 347 346 29 16 42 53 30 63 58 40 28 13 2 349 347 335 348
184 178 212 238 245 254 250 219 247 244 225 204 220 257 265 264 123 174 125 165 153 128 127 135 133 137 139 140 147 155 159 170 166 162 147 171 194 180 181 196 206 202 180 186 186 176 160 157 167 165 162 164 162 165 156 157 145 145 145 145 143 136 138 131 112 108 95 83 303 10 71 71 80 69 56 31 15 11 352 344 4 13 35 13 30 69 51 81 75 76 58 276 288 307 317 314 349
289 170 209 228 243 249 257 249 256 224 259 202 197 239 247 329 140 164 160 174 169 134 136 137 135 137 144 148 153 161 160 167 159 160 161 171 182 185 185 190 200 198 189 190 188 161 146 165 172 175 169 156 162 159 150 149 148 142 133 121 118 125 129 123 119 113 109 85 60 44 28 32 48 56 60 49 57 16 360 359 8 26 7 357 22 52 62 55 77 68 57 259 205 130 49 37 14
245 216 245 248 245 248 237 235 247 149 250 184 188 233 256 360 146 152 152 154 165 139 135 133 136 140 140 149 150 163 168 170 167 175 177 180 181 179 186 192 186 194 194 181 182 160 172 180 175 170 161 150 157 156 152 146 138 129 129 130 130 133 125 121 120 115 106 99 83 67 42 39 37 51 45 73 63 66 30 19 19 18 6 10 26 36 46 35 41 30 15 338 21 28 34 17 6
262 172 189 273 267 256 244 221 229 169 229 186 128 230 251 240 234 170 149 140 135 128 131 136 138 145 148 151 161 164 176 176 185 189 185 188 181 181 180 180 186 190 177 175 178 180 165 149 140 146 156 148 152 146 133 131 131 124 122 131 134 127 121 122 122 116 109 94 82 64 53 35 24 26 79 75 80 84 65 47 23 11 2 12 34 37 40 20 22 17 347 7 21 33 28 13 12
175 211 134 208 208 240 229 184 177 194 206 188 160 226 261 254 254 169 140 148 149 139 141 140 140 145 155 162 166 174 190 195 192 194 198 195 182 177 176 174 181 180 165 161 167 157 129 123 130 129 142 144 141 139 134 130 126 128 132 130 125 117 114 115 110 102 88 76 69 64 62 60 32 353 42 86 73 66 54 35 25 8 6 27 48 30 47 27 21 16 347 14 29 33 26 20 12
237 138 222 223 202 246 270 206 167 193 236 165 160 229 235 234 207 170 151 154 151 141 147 150 149 149 161 168 169 171 183 184 208 216 208 199 180 168 164 169 174 181 173 156 140 135 127 122 129 126 139 141 141 136 132 130 128 129 124 123 110 103 101 93 92 89 85 73 66 57 52 59 42 352 27 62 67 52 51 51 32 28 26 45 43 33 36 28 7 34 19 39 48 32 22 11 7
286 196 216 210 200 221 299 248 185 193 192 172 175 211 102 256 194 170 167 138 151 141 150 154 157 159 163 172 179 172 165 180 201 208 209 200 193 171 173 175 181 176 158 152 143 133 122 126 129 132 143 138 131 124 120 118 121 118 107 98 96 91 89 88 82 85 84 86 74 59 43 57 32 19 34 50 65 51 56 62 43 38 34 53 49 38 39 15 14 64 49 44 55 44 25 6 359
245 206 203 208 182 171 212 297 208 191 182 212 222 172 208 229 162 173 166 155 151 155 156 162 164 163 169 175 187 181 177 177 193 193 190 193 195 159 133 169 157 126 110 102 105 117 123 117 124 133 127 127 128 126 124 119 114 105 95 90 88 83 77 75 77 83 82 82 73 57 51 55 62 62 65 63 72 76 68 64 55 44 45 50 53 50 44 7 44 60 65 49 49 47 29 12 351
194 172 171 218 98 163 204 196 253 155 198 196 143 96 242 142 155 169 166 157 162 167 163 163 165 169 174 184 188 184 182 189 186 163 156 151 139 107 105 114 98 95 106 118 123 122 117 114 123 131 128 123 118 118 115 106 103 92 84 87 85 81 76 67 74 75 73 73 71 67 59 58 60 61 65 66 72 69 65 57 54 37 42 68 74 60 33 26 49 53 65 59 57 56 45 12 347
170 137 149 150 146 199 191 218 241 162 195 199 173 181 161 148 159 155 158 168 171 164 159 158 163 173 179 184 182 177 179 171 135 129 121 120 120 115 108 106 98 103 108 106 102 108 116 117 112 110 119 124 120 114 114 106 102 105 98 86 81 79 79 81 66 75 73 70 65 65 61 57 57 64 67 74 86 83 76 61 59 46 61 76 63 50 32 28 32 54 55 65 59 46 34 10 359
125 114 136 173 176 249 253 244 216 170 156 201 192 142 154 168 171 175 168 144 151 165 167 173 174 173 177 177 175 172 170 162 152 131 123 125 125 123 118 110 108 107 108 118 119 122 128 131 132 130 136 142 134 131 125 126 117 90 84 98 101 98 95 87 74 65 70 65 60 56 53 49 51 61 58 65 71 82 78 72 67 46 48 64 64 54 38 50 48 59 75 58 57 52 28 6 357
111 143 130 188 174 202 222 211 242 199 174 342 116 133 165 166 150 146 143 161 190 181 174 180 177 176 169 169 171 169 160 130 141 132 138 136 135 132 124 120 125 129 137 136 140 139 138 142 140 137 138 141 126 125 129 108 67 102 121 117 112 98 95 93 90 73 76 74 69 64 55 48 53 55 57 58 67 67 70 64 55 43 43 65 73 73 57 50 42 40 35 65 44 63 48 12 356
220 151 185 120 255 220 276 246 312 335 97 275 155 130 161 148 120 122 171 186 191 205 204 184 170 171 171 176 170 161 157 162 162 158 155 146 134 131 127 131 141 140 141 144 138 133 143 147 143 143 148 140 118 108 87 83 102 118 116 120 116 100 57 79 89 81 79 77 67 65 62 55 59 56 52 58 64 58 63 66 59 55 50 67 79 55 46 45 39 38 33 63 56 44 61 27 20
230 164 136 198 237 152 225 271 43 5 132 166 156 124 136 98 93 124 160 183 179 204 213 200 198 180 179 184 176 168 171 173 176 169 155 146 130 133 134 142 137 134 141 139 139 140 146 146 147 146 142 127 121 97 89 117 115 104 98 107 94 96 113 91 83 70 64 67 60 52 51 54 55 61 58 68 72 68 71 81 89 74 66 64 76 67 51 46 36 33 33 32 66 66 33 38 27
225 180 140 175 248 262 140 215 100 70 40 107 95 77 56 145 154 166 179 150 153 189 198 205 210 221 210 188 186 189 179 176 169 158 155 152 147 142 148 143 139 145 148 147 149 155 156 148 142 141 135 129 116 113 122 127 116 104 102 92 95 93 74 83 77 57 46 66 67 45 33 38 51 53 51 58 71 76 77 83 83 76 69 54 62 64 58 52 47 42 37 47 42 105 77 64 39
213 213 171 177 185 237 307 168 127 34 11 291 136 55 289 173 206 193 164 156 180 183 201 207 205 196 190 194 192 189 194 191 176 167 168 149 116 142 153 146 148 149 150 152 152 146 141 138 133 128 123 119 120 129 135 135 130 130 129 125 121 113 112 105 105 115 80 58 66 49 44 37 44 52 45 52 62 73 72 68 67 67 61 56 59 65 63 56 46 44 34 51 55 38 103 70 55
173 247 163 181 181 148 169 191 122 173 183 236 271 164 254 173 218 193 172 183 186 182 207 211 204 197 197 196 190 191 186 176 185 188 172 154 157 153 156 159 155 148 147 141 136 133 134 138 135 135 132 126 130 137 142 133 128 132 134 133 134 138 131 85 78 82 94 78 66 56 45 36 35 51 47 48 55 62 66 62 66 66 65 64 63 66 62 58 55 52 45 55 54 56 60 70 50
211 212 156 177 158 191 215 170 195 196 178 122 99 121 153 209 226 183 177 178 184 194 212 214 207 202 199 198 196 193 187 182 183 189 187 166 166 169 163 157 152 148 137 135 135 135 139 138 133 129 130 133 136 138 137 140 136 138 127 121 120 122 123 124 119 106 90 86 72 53 50 41 34 36 47 46 50 61 68 66 67 70 72 68 70 66 68 63 66 59 60 61 63 57 59 70 64
216 191 151 159 175 187 203 179 195 165 112 201 234 180 85 230 243 163 167 186 191 201 213 211 203 204 203 201 198 197 191 186 186 188 188 174 166 168 159 152 143 137 140 142 143 140 134 129 123 119 125 136 136 140 135 134 135 135 130 126 117 108 115 116 115 102 92 80 80 55 58 47 45 41 46 58 55 64 72 79 75 76 76 73 74 74 69 69 70 69 61 57 59 57 57 64 66
248 144 118 130 142 179 180 200 218 251 117 251 211 188 170 276 211 178 182 200 205 210 209 205 199 201 202 199 199 196 190 186 190 196 188 177 156 152 150 138 138 143 137 135 133 132 133 129 128 130 147 135 135 134 131 129 130 128 126 128 127 126 118 103 98 100 91 85 81 65 53 54 49 53 49 57 68 67 75 76 78 78 80 81 77 79 79 73 69 68 64 66 64 66 55 59 65
186 88 110 76 52 100 133 101 121 54 241 235 195 190 172 244 209 191 178 203 207 206 196 199 198 202 207 204 196 190 189 185 186 187 183 179 155 139 141 142 139 138 135 135 135 135 137 139 136 135 140 125 128 133 133 133 133 134 133 137 136 135 131 128 120 102 98 82 85 71 64 53 48 58 62 58 64 70 77 80 82 81 79 80 79 78 77 78 73 72 69 67 64 67 66 66 67
151 133 147 112 325 5 37 2 67 182 251 238 188 186 181 211 272 205 215 220 210 192 194 193 193 199 199 192 193 192 190 187 181 176 169 167 155 146 142 138 145 142 140 140 140 138 143 142 138 132 131 130 128 132 129 135 138 135 136 139 138 137 137 133 126 123 114 109 107 102 83 69 54 57 59 67 62 72 80 79 79 81 82 82 80 83 80 78 76 74 71 71 69 67 68 70 68
180 110 124 151 236 149 268 99 259 212 221 247 181 166 215 234 216 197 204 216 202 203 203 195 191 194 191 187 187 187 186 184 179 174 178 165 158 153 142 146 147 152 150 145 141 138 139 141 142 134 134 134 133 132 131 132 130 135 138 134 128 127 124 124 124 122 130 128 131 122 113 104 89 75 65 76 68 77 86 83 81 84 86 83 86 83 82 80 80 79 77 74 72 70 70 73 74
181 173 157 161 159 171 204 215 201 308 286 251 152 175 198 249 277 224 214 206 205 203 205 198 193 188 184 182 180 182 185 184 178 174 172 166 157 157 152 156 154 153 149 143 138 140 143 142 140 132 133 132 129 125 127 124 124 126 127 127 126 125 124 128 131 133 140 134 132 128 123 121 107 104 94 91 99 87 77 85 90 88 88 89 87 86 85 84 83 82 79 78 75 74 74 76 78
192 110 150 170 144 165 196 183 201 215 208 267 238 116 235 145 235 273 218 200 208 209 165 107 149 164 171 173 175 179 182 183 176 176 164 163 163 157 156 156 153 152 146 140 141 145 142 139 133 128 124 129 125 125 120 118 118 118 119 121 120 122 126 129 133 138 139 135 130 120 116 111 108 108 102 111 97 93 96 89 89 88 86 85 85 85 85 83 84 84 80 80 76 75 77 78 76
193 144 100 123 212 134 178 198 148 209 219 84 159 188 189 183 254 275 260 202 153 137 136 136 148 155 160 172 184 187 185 181 175 169 156 155 160 159 155 154 152 151 147 142 143 147 141 135 129 128 129 130 124 120 117 120 119 118 120 120 123 126 128 125 124 128 130 134 132 125 121 114 110 105 103 101 90 97 92 89 86 87 88 86 87 88 88 89 88 86 82 80 81 77 82 78 77
200 130 195 205 132 100 70 31 173 123 52 248 176 334 301 302 329 347 170 163 166 133 141 152 158 165 169 182 187 188 185 178 176 171 161 152 157 157 153 153 152 149 148 146 147 150 138 129 125 119 116 112 115 117 119 119 120 117 117 121 126 128 133 137 138 138 137 134 126 118 115 118 107 104 107 102 100 90 89 91 91 88 86 87 86 87 91 92 90 90 90 90 89 84 86 84 79
125 194 210 70 94 111 134 222 2 69 164 246 86 192 254 107 243 355 105 155 168 163 161 166 166 167 180 187 187 187 183 176 175 169 160 152 158 154 149 149 151 149 145 141 142 143 133 128 130 126 126 123 123 122 121 124 121 116 119 119 123 130 132 132 135 137 137 129 116 108 110 104 103 104 104 102 95 89 85 87 90 89 88 86 89 91 94 95 94 90 92 93 98 94 89 84 78
177 199 139 141 190 216 301 110 230 132 214 250 324 308 269 194 204 143 176 171 175 176 167 163 176 182 188 183 183 186 176 168 166 163 162 162 167 160 154 149 146 142 140 137 134 134 124 122 128 131 133 131 131 124 118 112 114 117 120 125 127 125 125 127 131 131 131 122 114 112 108 111 101 99 99 97 91 88 88 83 87 88 86 87 88 93 95 95 97 99 97 99 94 92 90 84 80
200 89 158 174 126 179 158 202 174 129 227 80 278 39 235 213 218 191 182 184 179 174 176 188 189 190 183 181 181 181 177 174 168 164 165 165 166 161 157 150 148 146 143 140 140 133 126 127 122 117 115 119 119 119 120 117 115 114 114 111 112 122 126 129 131 132 125 117 114 114 115 106 111 102 96 93 91 92 92 90 85 88 86 85 88 91 94 96 95 99 103 97 93 93 91 90 77
190 163 187 180 205 216 156 113 143 202 171 172 163 267 275 258 199 193 193 183 181 176 186 193 195 187 183 183 181 179 174 172 169 164 164 161 160 157 153 145 140 142 141 137 142 136 131 129 130 134 132 131 124 125 121 121 118 117 119 123 126 125 124 121 118 120 114 109 108 109 109 117 105 98 103 93 93 92 90 90 88 84 87 91 96 95 95 99 98 98 94 98 98 95 95 89 84
176 172 195 178 143 120 167 238 44 98 138 223 128 234 272 265 174 192 196 192 182 187 185 191 193 182 180 180 180 176 172 171 166 161 161 157 153 150 147 140 138 146 148 142 140 135 138 138 140 136 130 135 133 132 128 125 120 121 122 125 125 124 124 122 117 114 109 108 108 111 115 105 99 100 101 99 97 95 93 92 89 86 87 89 91 96 100 99 102 99 97 103 104 99 92 84 81